Погода в Знаменской Пестровке

Россия / Пензенская область     53°53′18″N   45°08′53″E
темп.,
°C
ветер,
м/с
пор.,
м/с
влажн.,
%
обл.,
%
осадки,
мм/ч
давл.,
гПа
погр.,
м
14 июня, пн
пн1400:00+16ю2396100 0.7 101360
03:00+15ююз22968 0.7 101320
06:00+17ю24937 0.1 1015181
09:00+21ю3480100 1.9 1015326
12:00+22ююз2266100 1.3 1015793
15:00+22ююв3371100 2.3 1015958
18:00+20ю3588100 1.4 1015260
21:00+16ю229456 1.8 101539
15 июня, вт
вт1500:00+15ююз119299 0.0 101511
03:00+15с1191100 0.0 101511
06:00+17св2288100 0.0 1014112
09:00+19в3484100 0.0 1014371
12:00+20ссв2587100 0.1 1013279
15:00+22в4576100 0.4 1012713
18:00+21всв3684100 1.9 1010216
21:00+18св3587100 4.3 100980
16 июня, ср
ср1600:00+17св389349 0.2 1008128
03:00+16ссв33963 0.3 100748
06:00+18ссв24920 0.0 1007159
09:00+22с33804 0.0 1007590
12:00+25ссз446927 0.0 10071238
15:00+24ссз577954 1.5 1007964
18:00+22сз498395 2.8 1008354
21:00+18ссз5129335 3.1 1011442
17 июня, чт
чт1700:00+16с6129541 0.0 1013541
03:00+13с412930 0.0 1016377
06:00+14с4108926 0.0 1018334
09:00+18с56680 0.0 1018732
12:00+20ссз57590 0.0 10191638
15:00+20ссз67580 0.0 10201718
18:00+18ссз58710 0.0 1021562
21:00+13с35820 0.0 102293
18 июня, пт
пт1800:00+12ссз33790 0.0 102337
03:00+11с33780 0.0 102433
06:00+14с25780 0.0 1025150
09:00+18с34630 0.0 1026532
12:00+21ссв455412 0.0 10261661
15:00+22с34535 0.0 10251703
18:00+21с24694 0.0 1026235
21:00+16ссз1179100 0.0 102611